[[{"header":{"parameterUnit":"m.s-1","parameterCategory":1,"la1":30.2991,"la2":30.254,"lo1":-89.0895,"lo2":-89.0444,"dy":0.0017,"dx":0.0017,"nx":28,"ny":28,"refTime":"2024-06-14T09:00:00:Z","depth":0,"parameterNumber":2,"parameterNumberName":"U-component_of_WINDS"},"data":[0,0,0,0,0,0,0,0,0,0,0,0,0,0,0,0,0,0,0,0,0,0,0,0,0,0,0,0,0,0,0,0,0,0,0,0,0,0,0,0,0,0,0,0,0,0,0,0,0,0,0,0,0,0,0,0,0,0,-2.0341,-2.0341,0,-2.0378,-2.0379,-2.0379,-2.0359,-2.0358,-2.0357,-2.0356,-2.0396,-2.0397,-2.0399,0,0,0,0,0,0,0,0,0,0,0,0,0,-2.0252,-2.0254,-2.0341,-2.0341,-2.0342,-2.0378,-2.0379,-2.0379,-2.036,-2.0358,-2.0357,-2.0356,-2.0395,-2.0397,-2.04,0,0,0,0,0,0,0,0,0,0,0,0,0,-2.029,-2.0254,-2.0341,-2.0336,-2.0336,-2.0378,-2.0379,-2.0379,-2.036,-2.0358,-2.0357,-2.0355,-2.0394,-2.0397,-2.04,-2.0448,0,0,-2.0409,-2.041,0,0,0,0,0,0,0,0,-2.0288,-2.0294,-2.0336,-2.0337,-2.0337,-2.0363,-2.0362,-2.0403,-2.036,-2.0351,-2.0356,-2.0355,-2.0386,-2.0389,-2.04,-2.045,-2.0452,-2.0409,-2.0411,-2.0412,-2.0413,0,0,0,0,0,0,0,-2.0286,-2.0292,-2.0356,-2.0337,-2.0337,-2.0332,-2.0336,-2.0369,-2.0376,-2.0352,-2.035,-2.0355,-2.0386,-2.0397,-2.0401,-2.0453,-2.0409,-2.0412,-2.0414,-2.0415,-2.0543,-2.0545,0,0,0,0,0,0,-2.0283,-2.029,-2.0354,-2.0357,-2.0308,-2.0335,-2.0339,-2.0356,-2.0376,-2.0378,-2.0356,-2.0354,-2.0393,-2.0397,-2.0402,-2.0459,-2.0412,-2.0415,-2.0417,-2.0542,-2.0544,-2.0545,0,0,0,0,0,0,-2.0281,-2.0289,-2.0353,-2.0323,-2.0331,-2.0338,-2.0357,-2.0357,-2.0369,-2.0379,-2.0381,-2.0366,-2.0392,-2.0398,-2.0437,-2.046,-2.0416,-2.0419,-2.054,-2.0542,-2.0545,-2.0574,0,0,0,0,0,0,-2.0279,-2.0289,-2.0307,-2.0323,-2.0332,-2.0387,-2.0358,-2.0359,-2.0374,-2.0371,-2.0389,-2.0391,-2.0391,-2.0432,-2.044,-2.0463,-2.0421,-2.0538,-2.0541,-2.0544,-2.0571,-2.0577,-2.0582,0,0,0,0,0,-2.0276,-2.0314,-2.0308,-2.0316,-2.0356,-2.0389,-2.0394,-2.0393,-2.0376,-2.0394,-2.0401,-2.039,-2.0456,-2.0436,-2.0445,-2.0469,-2.0536,-2.054,-2.0544,-2.0568,-2.0576,-2.0582,0,0,0,0,0,0,-2.0301,-2.0316,-2.031,-2.0355,-2.037,-2.0385,-2.0409,-2.0401,-2.0422,-2.0418,-2.0416,-2.0421,-2.0461,-2.0469,-2.0447,-2.0517,-2.0494,-2.0499,-2.051,-2.0517,-2.0522,-2.0519,-2.0424,0,0,0,0,0,-2.0312,-2.0337,-2.0349,-2.0388,-2.0396,-2.0401,-2.0415,-2.0413,-2.0429,-2.0436,-2.0446,-2.0462,-2.0486,-2.0502,-2.0525,-2.0572,-2.0575,-2.0593,-2.0599,-2.0604,-2.0608,-2.0632,-2.064,-2.0558,-2.0557,-2.0557,0,0,-2.0335,-2.0346,-2.0362,-2.0393,-2.0405,-2.0431,-2.0407,-2.0436,-2.0455,-2.044,-2.0477,-2.0485,-2.0503,-2.0546,-2.0565,-2.0554,-2.0631,-2.0608,-2.0612,-2.0614,-2.0637,-2.0644,-2.0651,-2.056,-2.056,-2.0559,0,0,-2.0389,-2.0401,-2.0433,-2.0445,-2.0463,-2.0466,-2.0474,-2.049,-2.0494,-2.0531,-2.052,-2.0543,-2.0586,-2.0598,-2.061,-2.0668,-2.0659,-2.0676,-2.0706,-2.0729,-2.0736,-2.0741,-2.0761,-2.0768,-2.0681,-2.0681,-2.0681,0,-2.0415,-2.0453,-2.0451,-2.048,-2.0494,-2.0482,-2.0514,-2.0526,-2.0551,-2.0561,-2.0548,-2.0599,-2.0611,-2.0656,-2.067,-2.0681,-2.0689,-2.0674,-2.0735,-2.0741,-2.0746,-2.0764,-2.0772,-2.0683,-2.0682,-2.0682,-2.0682,0,-2.0483,-2.051,-2.0535,-2.0558,-2.0574,-2.0605,-2.0607,-2.0624,-2.0621,-2.0625,-2.0662,-2.0675,-2.07,-2.0711,-2.0708,-2.0755,-2.0747,-2.0735,-2.0711,-2.0756,-2.0773,-2.078,-2.0685,-2.0685,-2.0684,-2.0684,0,0,-2.0555,-2.0576,-2.0585,-2.0594,-2.0613,-2.0634,-2.0664,-2.0687,-2.0701,-2.0719,-2.0743,-2.0779,-2.0767,-2.0781,-2.0779,-2.08,-2.0843,-2.0785,-2.0785,-2.0794,-2.0895,-2.0903,-2.0911,-2.0838,-2.0839,-2.084,-2.0893,0,-2.0609,-2.0661,-2.066,-2.0708,-2.0732,-2.072,-2.0746,-2.0761,-2.0765,-2.0786,-2.0792,-2.0816,-2.0799,-2.0807,-2.0828,-2.0834,-2.0863,-2.083,-2.086,-2.0861,-2.0854,-2.0921,-2.093,-2.0979,-2.09,-2.0901,-2.0902,0,-2.068,-2.0698,-2.0749,-2.0762,-2.0772,-2.0796,-2.0817,-2.0837,-2.0853,-2.0855,-2.0869,-2.0864,-2.0894,-2.0871,-2.0912,-2.0889,-2.0901,-2.0906,-2.0908,-2.091,-2.0883,-2.0923,-2.0995,-2.1002,-2.0913,-2.0912,-2.0911,0,-2.0725,-2.0763,-2.0798,-2.0807,-2.0824,-2.084,-2.0848,-2.0862,-2.0876,-2.0895,-2.0903,-2.0926,-2.0937,-2.0955,-2.0955,-2.0938,-2.0996,-2.0973,-2.0998,-2.0998,-2.101,-2.1009,-2.1083,-2.102,-2.102,-2.102,-2.1019,0,-2.0785,-2.0817,-2.0818,-2.0839,-2.0873,-2.0871,-2.0905,-2.0912,-2.0924,-2.0946,-2.0938,-2.0959,-2.0959,-2.098,-2.0981,-2.1014,-2.102,-2.1022,-2.1021,-2.1022,-2.1021,-2.1029,-2.1025,-2.1022,-2.1021,-2.1021,-2.102,0,-2.0842,-2.0844,-2.0881,-2.0894,-2.0897,-2.0922,-2.0933,-2.0953,-2.0956,-2.0984,-2.0991,-2.0997,-2.1021,-2.1023,-2.1052,-2.1053,-2.1092,-2.1089,-2.1087,-2.1086,-2.111,-2.1107,-2.1191,-2.1202,-2.1132,-2.1133,-2.1134,0,-2.088,-2.0903,-2.0918,-2.0931,-2.094,-2.0963,-2.0976,-2.0975,-2.099,-2.1009,-2.1026,-2.105,-2.1068,-2.1108,-2.1115,-2.1137,-2.1133,-2.1161,-2.1136,-2.1135,-2.1132,-2.113,-2.1132,-2.1165,-2.1166,-2.1167,-2.1167,0,-2.0946,-2.0946,-2.0966,-2.0986,-2.1002,-2.1018,-2.1033,-2.1045,-2.1046,-2.1063,-2.1087,-2.1101,-2.113,-2.1153,-2.1174,-2.1182,-2.1175,-2.1175,-2.1182,-2.1182,-2.1179,-2.1179,-2.1099,-2.1173,-2.1172,-2.1172,-2.1172,-2.1171,-2.0994,-2.1013,-2.1026,-2.1048,-2.1059,-2.1073,-2.1092,-2.1097,-2.1117,-2.114,-2.1138,-2.1165,-2.1179,-2.1206,-2.1216,-2.1237,-2.1228,-2.1238,-2.124,-2.1242,-2.1244,-2.1176,-2.1241,-2.1241,-2.1241,-2.1241,-2.124,0,-2.1059,-2.1066,-2.1086,-2.1107,-2.1124,-2.1115,-2.1131,-2.1145,-2.1169,-2.1182,-2.12,-2.1228,-2.125,-2.1258,-2.128,-2.1295,-2.1292,-2.13,-2.1299,-2.1301,-2.1252,-2.1243,-2.1302,-2.1302,-2.1302,-2.1302,-2.1302,-2.1302,-2.1095,-2.1127,-2.1128,-2.1165,-2.1172,-2.1197,-2.1207,-2.122,-2.123,-2.1261,-2.1279,-2.1284,-2.1295,-2.1317,-2.1337,-2.1338,-2.1346,-2.1356,-2.1356,-2.1311,-2.1304,-2.1298,-2.129,-2.1358,-2.1358,-2.1403,-2.1404,-2.1404]},{"header":{"parameterUnit":"m.s-1","parameterCategory":1,"la1":30.2991,"la2":30.254,"lo1":-89.0895,"lo2":-89.0444,"dy":0.0017,"dx":0.0017,"nx":28,"ny":28,"refTime":"2024-06-14T09:00:00:Z","depth":0,"parameterNumber":3,"parameterNumberName":"V-component_of_WINDS"},"data":[0,0,0,0,0,0,0,0,0,0,0,0,0,0,0,0,0,0,0,0,0,0,0,0,0,0,0,0,0,0,0,0,0,0,0,0,0,0,0,0,0,0,0,0,0,0,0,0,0,0,0,0,0,0,0,0,0,0,3.2537,3.2538,0,3.2588,3.2589,3.2589,3.2544,3.2542,3.254,3.2538,3.2587,3.259,3.2593,0,0,0,0,0,0,0,0,0,0,0,0,0,3.2396,3.2399,3.2537,3.2538,3.2538,3.2588,3.2589,3.259,3.2544,3.2542,3.254,3.2538,3.2586,3.259,3.2593,0,0,0,0,0,0,0,0,0,0,0,0,0,3.2453,3.24,3.2537,3.2522,3.2521,3.2588,3.2589,3.259,3.2545,3.2542,3.2539,3.2537,3.2585,3.2589,3.2594,3.2677,0,0,3.2607,3.2609,0,0,0,0,0,0,0,0,3.245,3.2458,3.2523,3.2523,3.2522,3.2557,3.2557,3.2619,3.2545,3.2536,3.2538,3.2535,3.2579,3.2584,3.2599,3.2679,3.2681,3.2608,3.2611,3.2613,3.2614,0,0,0,0,0,0,0,3.2446,3.2456,3.2557,3.2524,3.2524,3.2511,3.2516,3.2568,3.2572,3.2536,3.2533,3.254,3.2578,3.2595,3.26,3.2682,3.2608,3.2612,3.2615,3.2616,3.2832,3.2834,0,0,0,0,0,0,3.2444,3.2453,3.2555,3.2559,3.2479,3.2516,3.2522,3.2548,3.2571,3.2572,3.2542,3.2538,3.2589,3.2595,3.2602,3.27,3.2613,3.2617,3.2619,3.2829,3.2832,3.2836,0,0,0,0,0,0,3.2441,3.2454,3.2553,3.2505,3.2517,3.2521,3.2552,3.2551,3.2568,3.2576,3.2576,3.2559,3.2587,3.2595,3.2659,3.2701,3.2619,3.2623,3.2825,3.283,3.2834,3.2897,0,0,0,0,0,0,3.2437,3.2453,3.2486,3.2506,3.2519,3.2611,3.2555,3.2554,3.2576,3.2571,3.2592,3.2593,3.2585,3.2652,3.2663,3.2705,3.2626,3.2821,3.2827,3.2832,3.2891,3.2903,3.2913,0,0,0,0,0,3.2432,3.2501,3.2488,3.25,3.2561,3.2613,3.2621,3.2612,3.258,3.2612,3.2617,3.2592,3.2695,3.2659,3.2671,3.2715,3.2819,3.2825,3.2832,3.2886,3.2901,3.2913,0,0,0,0,0,0,3.2484,3.2503,3.2489,3.2566,3.2589,3.2606,3.2646,3.2628,3.2659,3.2652,3.2639,3.2644,3.2711,3.2719,3.2679,3.2797,3.2751,3.2761,3.2788,3.2802,3.2813,3.2809,3.263,0,0,0,0,0,3.2504,3.2547,3.2561,3.2628,3.264,3.2641,3.2664,3.2655,3.2678,3.2686,3.2696,3.2718,3.2755,3.2779,3.2814,3.2893,3.2896,3.2929,3.294,3.2949,3.2957,3.2998,3.3013,3.2858,3.2858,3.2858,0,0,3.2547,3.2562,3.259,3.2638,3.2655,3.2698,3.2649,3.2697,3.2728,3.2693,3.2753,3.2762,3.2785,3.2856,3.2888,3.2865,3.3001,3.2958,3.2965,3.2968,3.3006,3.3021,3.3034,3.2862,3.2861,3.2861,0,0,3.2645,3.2663,3.2719,3.2737,3.2763,3.2764,3.2777,3.2798,3.2802,3.2863,3.2837,3.2873,3.2938,3.2955,3.2972,3.3078,3.3055,3.3089,3.3147,3.3187,3.3199,3.321,3.3246,3.3259,3.3097,3.3098,3.3098,0,3.2694,3.2759,3.275,3.28,3.2821,3.2793,3.285,3.2867,3.2903,3.2917,3.2892,3.2972,3.2986,3.306,3.3086,3.3101,3.3115,3.3086,3.3198,3.3209,3.3219,3.3253,3.3267,3.3101,3.3101,3.3101,3.31,0,3.2817,3.2862,3.2905,3.2941,3.2967,3.302,3.3018,3.3046,3.3035,3.3038,3.3099,3.3115,3.3152,3.3169,3.3159,3.3242,3.3227,3.3201,3.3154,3.3237,3.3269,3.3282,3.3107,3.3106,3.3104,3.3103,0,0,3.2948,3.2979,3.2995,3.3011,3.3038,3.3072,3.3123,3.316,3.3183,3.3209,3.325,3.3306,3.3281,3.3301,3.3292,3.3328,3.3409,3.3297,3.3297,3.3315,3.3499,3.3518,3.3533,3.3395,3.3397,3.3399,3.3497,0,3.3046,3.3136,3.313,3.3214,3.3255,3.3229,3.3274,3.3294,3.3298,3.3332,3.3336,3.3375,3.3341,3.3353,3.3387,3.3392,3.3445,3.3385,3.3431,3.3433,3.3425,3.355,3.357,3.3661,3.3509,3.3512,3.3513,0,3.3173,3.3204,3.3293,3.3313,3.333,3.337,3.3403,3.3437,3.3459,3.3459,3.3482,3.3467,3.3517,3.3472,3.3539,3.3498,3.3517,3.3523,3.3526,3.3528,3.3477,3.3554,3.3691,3.3704,3.3533,3.3531,3.353,0,3.3258,3.3322,3.3383,3.3397,3.3423,3.3451,3.3463,3.3483,3.3506,3.3534,3.3548,3.3583,3.3601,3.3627,3.3621,3.3589,3.369,3.3644,3.369,3.369,3.3711,3.371,3.385,3.3726,3.3726,3.3726,3.3726,0,3.3367,3.3422,3.3421,3.3458,3.3519,3.3511,3.357,3.3578,3.3596,3.3633,3.3613,3.3648,3.364,3.3675,3.3671,3.3727,3.3735,3.3736,3.3734,3.3737,3.3736,3.3747,3.374,3.373,3.3729,3.3728,3.3727,0,3.3471,3.3473,3.3538,3.3557,3.3563,3.3606,3.3622,3.3657,3.366,3.3707,3.3718,3.3722,3.3761,3.3759,3.3804,3.3801,3.387,3.3861,3.3862,3.386,3.3905,3.3901,3.4057,3.4076,3.3941,3.3943,3.3944,0,3.354,3.3582,3.3606,3.363,3.3644,3.3683,3.3707,3.37,3.3725,3.3754,3.3784,3.3823,3.3853,3.3917,3.3923,3.3957,3.3948,3.4,3.3953,3.3954,3.3947,3.3944,3.3947,3.4009,3.4011,3.4012,3.4013,0,3.3662,3.3661,3.3696,3.3731,3.376,3.3787,3.3812,3.3832,3.3828,3.3857,3.3898,3.3922,3.3968,3.4005,3.4038,3.4048,3.4029,3.4028,3.404,3.4043,3.4041,3.4041,3.3886,3.4024,3.4023,3.4022,3.4022,3.4021,3.3749,3.3785,3.3807,3.3846,3.3865,3.3888,3.3922,3.3929,3.3964,3.4001,3.3995,3.4041,3.4061,3.4103,3.4117,3.4152,3.4133,3.4151,3.4155,3.4159,3.4164,3.4038,3.4158,3.4157,3.4157,3.4157,3.4157,0,3.3868,3.3882,3.3918,3.3954,3.3985,3.3966,3.3993,3.4019,3.406,3.4081,3.4112,3.4158,3.4195,3.4204,3.4239,3.4265,3.4257,3.4274,3.4271,3.4274,3.4179,3.4165,3.428,3.428,3.428,3.428,3.428,3.428,3.3934,3.3992,3.3994,3.4061,3.4074,3.4119,3.4136,3.4157,3.4174,3.4227,3.4258,3.4264,3.428,3.4316,3.4349,3.435,3.4363,3.4383,3.4381,3.4293,3.428,3.4268,3.4255,3.4387,3.4387,3.4472,3.4473,3.4474]}]]